FW7746 Weather Reports


time (UTC)temp
F
wind
direction
speed
knots
gust
knots
rain 1hr
in
rain 24hr
in
rain mn
in
humidity
%
barometer
mb
20260903001104 56 215 0.0 4.3 0.00 0.07 0.07 76 1007.7
20260903000604 56 159 0.0 4.3 0.00 0.07 0.07 75 1007.6
20260903000104 56 107 0.9 10.4 0.00 0.07 0.07 76 1007.5
20260902235604 56 138 0.9 5.2 0.00 0.07 0.07 76 1007.3
20260902235104 56 130 0.0 4.3 0.00 0.07 0.07 77 1007.3
20260902234604 56 163 0.0 2.6 0.00 0.07 0.07 77 1007.2
20260902234104 55 156 0.0 2.6 0.00 0.07 0.07 78 1007.2
20260902233104 55 120 0.0 2.6 0.00 0.07 0.07 80 1007.1
20260902232604 55 194 0.9 8.7 0.00 0.07 0.07 80 1007.0
20260902232104 55 149 0.0 4.3 0.00 0.07 0.07 80 1006.9
20260902231603 55 158 0.9 4.3 0.00 0.07 0.07 81 1006.8
20260902230604 55 123 0.0 1.7 0.00 0.07 0.07 81 1007.0
20260902230104 55 119 0.0 2.6 0.00 0.07 0.07 82 1007.0
20260902225603 56 150 0.0 0.0 0.00 0.07 0.07 82 1007.0
20260902225104 56 201 0.0 5.2 0.00 0.07 0.07 82 1007.0
20260902224604 56 172 0.0 1.7 0.00 0.07 0.07 82 1007.0
20260902223604 55 121 0.0 1.7 0.00 0.07 0.07 81 1006.7
20260902223104 55 208 0.0 1.7 0.00 0.07 0.07 82 1006.6
20260902222604 55 169 0.9 6.1 0.00 0.07 0.07 82 1006.4
20260902222104 54 198 0.9 2.6 0.00 0.07 0.07 83 1006.3
20260902221604 54 196 0.0 2.6 0.00 0.07 0.07 83 1006.2
20260902221104 54 166 0.0 2.6 0.00 0.07 0.07 84 1006.2
20260902220604 54 191 0.0 2.6 0.00 0.07 0.07 84 1006.1
20260902220104 54 219 0.9 5.2 0.00 0.07 0.07 82 1006.3
20260902215604 54 229 0.0 6.1 0.00 0.07 0.07 83 1006.3
20260902215104 54 186 0.0 1.7 0.00 0.07 0.07 83 1006.2
20260902214605 54 182 0.9 7.0 0.01 0.07 0.07 83 1006.3
20260902214104 54 150 0.0 4.3 0.01 0.07 0.07 83 1006.4
20260902213603 54 163 0.9 2.6 0.01 0.07 0.07 83 1006.5
20260902213104 54 207 0.9 4.3 0.01 0.07 0.07 83 1006.5
20260902212604 54 73 0.9 4.3 0.01 0.07 0.07 83 1006.5
20260902212104 54 158 0.0 1.7 0.01 0.07 0.07 84 1006.6
20260902211604 54 143 0.9 7.8 0.01 0.07 0.07 84 1006.5
20260902211104 54 156 0.0 2.6 0.01 0.07 0.07 85 1006.6
20260902210604 53 132 0.0 5.2 0.01 0.07 0.07 85 1006.5
20260902210105 53 214 0.0 2.6 0.02 0.07 0.07 85 1006.4
20260902205604 53 174 0.0 2.6 0.02 0.07 0.07 86 1006.4
20260902204604 53 120 0.0 2.6 0.02 0.06 0.06 86 1006.3
20260902204104 52 161 0.0 1.7 0.02 0.06 0.06 86 1006.3
20260902203604 52 170 0.0 0.9 0.02 0.06 0.06 86 1006.2
20260902203104 52 196 1.7 7.0 0.02 0.06 0.06 85 1006.2
20260902202604 52 101 0.9 4.3 0.02 0.06 0.06 86 1006.2
20260902202104 52 177 0.9 2.6 0.03 0.06 0.06 86 1006.3
20260902201603 51 160 0.9 4.3 0.03 0.06 0.06 87 1006.2
20260902201104 51 135 0.9 4.3 0.04 0.06 0.06 86 1006.4
20260902200104 52 217 0.0 2.6 0.04 0.05 0.05 86 1006.6
20260902195604 52 121 0.0 1.7 0.04 0.05 0.05 85 1006.6
20260902195104 52 145 0.0 1.7 0.04 0.05 0.05 86 1006.6
20260902194104 52 183 0.0 2.6 0.04 0.04 0.04 85 1006.6
20260902193604 52 162 0.0 2.6 0.04 0.04 0.04 86 1006.7
20260902193104 52 171 0.0 1.7 0.04 0.04 0.04 86 1006.7
20260902192604 52 160 0.0 2.6 0.04 0.04 0.04 85 1006.6
20260902192104 53 180 1.7 7.0 0.03 0.03 0.03 84 1006.7
20260902191104 53 120 0.0 2.6 0.02 0.02 0.02 84 1006.8
20260902190604 54 192 0.0 1.7 0.02 0.02 0.02 83 1006.8
20260902190105 54 230 0.0 2.6 0.01 0.01 0.01 82 1006.8
20260902185604 54 214 0.9 2.6 0.01 0.01 0.01 80 1006.8
20260902185103 55 128 0.0 0.9 0.01 0.01 0.01 78 1006.7
20260902184604 55 145 0.0 1.7 0.00 0.00 0.00 76 1006.7
20260902184104 56 136 0.0 0.9 0.00 0.00 0.00 74 1006.6
20260902183104 56 150 0.0 1.7 0.00 0.00 0.00 69 1006.5
20260902182604 57 134 0.9 2.6 0.00 0.00 0.00 68 1006.5
20260902181604 58 169 0.0 7.0 0.00 0.00 0.00 61 1006.4
20260902181104 58 174 2.6 10.4 0.00 0.00 0.00 57 1006.4
20260902180604 58 139 0.0 4.3 0.00 0.00 0.00 56 1006.3
20260902175104 58 232 0.9 4.3 0.00 0.00 0.00 57 1006.2
20260902174604 58 206 0.0 4.3 0.00 0.00 0.00 58 1006.2
20260902174104 57 137 0.0 2.6 0.00 0.00 0.00 58 1006.2
20260902173604 57 101 0.9 7.0 0.00 0.00 0.00 58 1006.2
20260902173104 57 169 0.0 4.3 0.00 0.00 0.00 58 1006.1
20260902172603 57 141 0.9 7.8 0.00 0.00 0.00 58 1006.1
20260902171104 57 205 0.9 5.2 0.00 0.00 0.00 60 1006.0
20260902170604 56 117 0.0 4.3 0.00 0.00 0.00 61 1006.0
20260902170105 56 120 0.9 8.7 0.00 0.00 0.00 62 1006.0
20260902165604 56 133 0.9 7.0 0.00 0.00 0.00 62 1005.9
20260902165104 56 150 1.7 4.3 0.00 0.00 0.00 62 1005.9
20260902164605 56 146 0.9 7.0 0.00 0.00 0.00 62 1005.9
20260902164104 57 180 0.9 2.6 0.00 0.00 0.00 63 1005.7
20260902163604 56 164 0.0 6.1 0.00 0.00 0.00 63 1005.8
20260902162604 56 132 0.0 2.6 0.00 0.00 0.00 65 1006.0
20260902162104 56 127 0.9 4.3 0.00 0.00 0.00 66 1006.0
20260902161604 56 138 0.9 4.3 0.00 0.00 0.00 66 1006.1
20260902161104 56 121 0.0 2.6 0.00 0.00 0.00 66 1006.1
20260902160104 55 161 0.0 2.6 0.00 0.00 0.00 67 1006.1
20260902155604 56 192 0.0 1.7 0.00 0.00 0.00 68 1006.2
20260902154604 55 199 0.0 0.0 0.00 0.00 0.00 69 1006.3
20260902153605 55 202 0.0 0.0 0.00 0.00 0.00 71 1006.4
20260902153104 55 214 0.0 0.9 0.00 0.00 0.00 71 1006.4
20260902152604 55 121 0.0 0.0 0.00 0.00 0.00 72 1006.6
20260902151604 54 218 0.0 1.7 0.00 0.00 0.00 73 1006.7
20260902151105 54 235 0.0 2.6 0.00 0.00 0.00 73 1006.7
20260902150604 54 222 0.0 2.6 0.00 0.00 0.00 73 1007.0
20260902150105 54 217 0.0 0.0 0.00 0.00 0.00 73 1007.0
20260902145604 54 217 0.0 1.7 0.00 0.00 0.00 73 1007.0
20260902145104 54 214 0.0 2.6 0.00 0.00 0.00 73 1007.0
20260902144604 54 189 0.0 0.9 0.00 0.00 0.00 73 1007.1
20260902144104 54 196 0.0 0.9 0.00 0.00 0.00 74 1007.1
20260902143604 53 85 0.0 1.7 0.00 0.00 0.00 74 1007.1
20260902143104 53 85 0.0 2.6 0.00 0.00 0.00 74 1007.1
20260902142104 53 181 0.0 0.0 0.00 0.00 0.00 75 1007.1
20260902141605 53 182 0.0 1.7 0.00 0.00 0.00 75 1007.1
20260902141104 53 173 0.0 0.0 0.00 0.00 0.00 76 1007.1
20260902140604 53 173 0.0 2.6 0.00 0.00 0.00 76 1007.2
20260902140105 53 148 0.0 0.0 0.00 0.00 0.00 76 1007.1
20260902135605 53 148 0.0 0.0 0.00 0.00 0.00 76 1007.2
20260902135104 53 120 0.0 0.0 0.00 0.00 0.00 76 1007.2
20260902134104 52 115 0.0 0.0 0.00 0.00 0.00 76 1007.2
20260902133604 52 113 0.0 0.0 0.00 0.00 0.00 77 1007.2
20260902133105 52 113 0.0 0.0 0.00 0.00 0.00 77 1007.2
20260902132604 52 113 0.0 0.0 0.00 0.00 0.00 78 1007.2
20260902132104 52 113 0.0 0.0 0.00 0.00 0.00 78 1007.2
20260902131604 52 113 0.0 0.0 0.00 0.00 0.00 78 1007.3
20260902131104 52 113 0.0 0.0 0.00 0.00 0.00 78 1007.3
20260902130604 52 113 0.0 0.0 0.00 0.00 0.00 78 1007.3
20260902130105 53 113 0.0 0.0 0.00 0.00 0.00 78 1007.4
20260902125605 53 113 0.0 2.6 0.00 0.00 0.00 78 1007.4
20260902125104 53 225 0.0 0.9 0.00 0.00 0.00 77 1007.4
20260902124604 53 235 0.0 1.7 0.00 0.00 0.00 77 1007.4
20260902124104 53 156 0.0 2.6 0.00 0.00 0.00 77 1007.4
20260902123604 53 151 0.0 0.0 0.00 0.00 0.00 76 1007.4
20260902123104 53 151 0.0 0.0 0.00 0.00 0.00 76 1007.5
20260902122104 53 151 0.0 0.9 0.00 0.00 0.00 76 1007.6
20260902121604 53 151 0.0 0.0 0.00 0.00 0.00 76 1007.6
20260902121104 53 151 0.0 0.0 0.00 0.00 0.00 76 1007.6
20260902120604 53 151 0.0 0.0 0.00 0.00 0.00 76 1007.6
20260902120105 53 151 0.0 0.0 0.00 0.00 0.00 76 1007.6
20260902115604 53 151 0.0 0.0 0.00 0.00 0.00 76 1007.7
20260902115104 53 151 0.0 0.0 0.00 0.00 0.00 76 1007.7
20260902114604 53 151 0.0 0.9 0.00 0.00 0.00 76 1007.7
20260902113605 53 151 0.0 0.0 0.00 0.00 0.00 76 1007.8
20260902113104 53 151 0.0 0.0 0.00 0.00 0.00 76 1007.7
20260902112104 53 151 0.0 0.0 0.00 0.00 0.00 76 1007.8
20260902111604 53 151 0.0 0.0 0.00 0.00 0.00 76 1007.8
20260902111104 53 151 0.0 0.0 0.00 0.00 0.00 76 1007.8
20260902110105 53 151 0.0 0.9 0.00 0.00 0.00 76 1007.9
20260902105605 52 151 0.0 0.0 0.00 0.00 0.00 77 1007.9
20260902105104 52 151 0.0 0.0 0.00 0.00 0.00 78 1007.9
20260902104605 51 151 0.0 0.0 0.00 0.00 0.00 78 1007.9
20260902104104 51 151 0.0 0.0 0.00 0.00 0.00 78 1008.0
20260902103604 51 151 0.0 0.0 0.00 0.00 0.00 78 1008.0
20260902103104 51 151 0.0 0.0 0.00 0.00 0.00 78 1007.9
20260902102604 51 151 0.0 0.0 0.00 0.00 0.00 78 1008.0
20260902102104 51 151 0.0 0.0 0.00 0.00 0.00 79 1008.0
20260902101604 51 151 0.0 0.0 0.00 0.00 0.00 79 1008.1
20260902101104 50 151 0.0 0.0 0.00 0.00 0.00 80 1008.1
20260902100604 50 151 0.0 0.0 0.00 0.00 0.00 80 1008.1
20260902100105 50 151 0.0 0.0 0.00 0.00 0.00 80 1008.2
20260902095605 50 151 0.0 0.0 0.00 0.00 0.00 81 1008.2
20260902095105 49 151 0.0 0.0 0.00 0.00 0.00 81 1008.2
20260902093105 49 151 0.0 0.0 0.00 0.00 0.00 82 1008.4
20260902092604 49 151 0.0 0.0 0.00 0.00 0.00 81 1008.4
20260902092104 49 151 0.0 0.0 0.00 0.00 0.00 81 1008.3
20260902091605 49 151 0.0 0.0 0.00 0.00 0.00 81 1008.3
20260902091104 49 151 0.0 0.0 0.00 0.00 0.00 80 1008.3
20260902090604 49 151 0.0 0.0 0.00 0.00 0.00 81 1008.4
20260902090104 50 151 0.0 0.0 0.00 0.00 0.00 80 1008.5
20260902085605 50 151 0.0 0.0 0.00 0.00 0.00 78 1008.5
20260902085104 50 151 0.0 0.0 0.00 0.00 0.00 78 1008.5
20260902084104 51 151 0.0 0.0 0.00 0.00 0.00 77 1008.2
20260902083604 51 151 0.0 0.0 0.00 0.00 0.00 77 1008.2
20260902083104 51 151 0.0 0.0 0.00 0.00 0.00 77 1008.3
20260902082104 51 151 0.0 0.0 0.00 0.00 0.00 76 1008.1
20260902081604 52 151 0.0 0.0 0.00 0.00 0.00 76 1008.0
20260902081104 52 151 0.0 0.0 0.00 0.00 0.00 76 1008.0
20260902075605 52 151 0.0 0.0 0.00 0.00 0.00 75 1007.9
20260902075104 52 151 0.0 0.0 0.00 0.00 0.00 75 1007.9
20260902074604 52 151 0.0 0.0 0.00 0.00 0.00 74 1007.9
20260902073104 53 151 0.0 0.0 0.00 0.00 0.00 74 1007.8
20260902072605 53 151 0.0 0.0 0.00 0.00 0.00 74 1007.8
20260902071604 53 159 0.0 0.0 0.00 0.00 0.00 74 1007.7
20260902070604 53 159 0.0 0.0 0.00 0.00 0.00 73 1007.6
20260902070105 53 159 0.0 0.0 0.00 0.00 0.00 73 1007.4
20260902065604 53 159 0.0 0.0 0.00 0.00 0.00 72 1007.5
20260902065104 54 159 0.0 0.0 0.00 0.00 0.00 71 1007.5
20260902064104 54 159 0.0 0.0 0.00 0.00 0.00 71 1007.7
20260902063604 55 159 0.0 0.0 0.00 0.00 0.00 70 1007.7
20260902063104 55 159 0.0 0.0 0.00 0.00 0.00 69 1007.8
20260902062604 55 159 0.0 0.0 0.00 0.00 0.00 70 1007.8
20260902061604 55 159 0.0 0.0 0.00 0.00 0.00 70 1007.7
20260902061104 55 159 0.0 0.0 0.00 0.00 0.00 69 1007.9
20260902060604 55 159 0.0 0.0 0.00 0.00 0.00 69 1007.8
20260902060104 55 159 0.0 0.0 0.00 0.00 0.00 68 1007.8
20260902055604 87 232 0.0 0.0 0.00 0.00 0.00 21 1010.4